TimeEST,TemperatureF,Dew PointF,Humidity,Sea Level PressureIn,VisibilityMPH,Wind Direction,Wind SpeedMPH,Gust SpeedMPH,PrecipitationIn,Events,Conditions,WindDirDegrees,DateUTC
1:56 AM,15.1,1.9,56,30.27,10.0,NW,16.1,32.2,0.00,,Scattered Clouds,310,2013-02-01 06:56:00
2:56 AM,14.0,1.9,59,30.30,10.0,WNW,15.0,21.9,N/A,,Overcast,300,2013-02-01 07:56:00
3:56 AM,12.9,1.9,62,30.34,10.0,West,17.3,28.8,N/A,,Overcast,280,2013-02-01 08:56:00
4:56 AM,10.9,-0.9,59,30.35,10.0,NW,15.0,21.9,N/A,,Mostly Cloudy,310,2013-02-01 09:56:00
5:56 AM,10.9,-0.9,59,30.39,10.0,WNW,11.5,-,N/A,,Scattered Clouds,300,2013-02-01 10:56:00
6:56 AM,10.0,-0.0,64,30.41,10.0,WNW,11.5,-,N/A,,Scattered Clouds,290,2013-02-01 11:56:00
7:56 AM,9.0,-0.0,67,30.43,10.0,WNW,8.1,-,N/A,,Partly Cloudy,290,2013-02-01 12:56:00
8:56 AM,10.4,1.4,67,30.43,10.0,WNW,10.4,-,N/A,,Partly Cloudy,300,2013-02-01 13:56:00
9:49 AM,12.2,3.2,67,30.46,10.0,West,8.1,-,N/A,,Mostly Cloudy,280,2013-02-01 14:49:00
9:56 AM,12.0,3.9,70,30.49,10.0,West,9.2,17.3,N/A,,Mostly Cloudy,270,2013-02-01 14:56:00
10:37 AM,14.0,3.2,62,30.47,10.0,West,9.2,-,N/A,,Partly Cloudy,260,2013-02-01 15:37:00
10:56 AM,14.0,3.0,62,30.50,10.0,Variable,3.5,-,N/A,,Partly Cloudy,0,2013-02-01 15:56:00
11:56 AM,15.1,3.0,59,30.52,10.0,WSW,11.5,-,N/A,,Partly Cloudy,240,2013-02-01 16:56:00
12:56 PM,18.0,5.0,57,30.50,10.0,West,11.5,-,N/A,,Scattered Clouds,280,2013-02-01 17:56:00
1:56 PM,19.0,5.0,54,30.47,10.0,West,9.2,-,N/A,,Partly Cloudy,270,2013-02-01 18:56:00
2:56 PM,19.9,6.1,55,30.46,10.0,West,10.4,-,N/A,,Partly Cloudy,260,2013-02-01 19:56:00
3:56 PM,19.9,6.1,55,30.44,10.0,South,4.6,-,N/A,,Partly Cloudy,190,2013-02-01 20:56:00
4:56 PM,21.0,7.0,55,30.44,10.0,WSW,6.9,-,N/A,,Partly Cloudy,240,2013-02-01 21:56:00
5:56 PM,19.4,6.8,58,30.41,10.0,WSW,8.1,-,N/A,,Partly Cloudy,240,2013-02-01 22:56:00
6:56 PM,19.0,7.0,59,30.43,10.0,West,5.8,-,N/A,,Clear,260,2013-02-01 23:56:00
7:56 PM,19.0,7.0,59,30.44,10.0,WSW,4.6,-,N/A,,Scattered Clouds,240,2013-02-02 00:56:00
8:56 PM,19.0,7.0,59,30.42,10.0,SW,4.6,-,N/A,,Scattered Clouds,230,2013-02-02 01:56:00
9:56 PM,19.9,8.1,60,30.41,10.0,Calm,Calm,-,N/A,,Overcast,0,2013-02-02 02:56:00
10:56 PM,19.0,10.0,68,30.38,10.0,Calm,Calm,-,N/A,,Mostly Cloudy,0,2013-02-02 03:56:00
11:56 PM,19.9,9.0,62,30.38,10.0,SSE,5.8,-,N/A,,Overcast,160,2013-02-02 04:56:00